Time,TemperatureF,DewpointF,PressureIn,WindDirection,WindDirectionDegrees,WindSpeedMPH,WindSpeedGustMPH,Humidity,HourlyPrecipIn,Conditions,Clouds,dailyrainin,SoftwareType,DateUTC
2013-08-02 00:14:00,60.3,55.0,29.89,WNW,293,0.0,2.0,83,0.00,,,0.00,weatherlink.com 1.10,2013-08-02 04:14:00,
2013-08-02 00:29:00,60.0,55.0,29.89,WNW,293,0.0,2.0,82,0.00,,,0.00,weatherlink.com 1.10,2013-08-02 04:29:00,
2013-08-02 00:44:00,59.9,54.0,29.89,WNW,293,0.0,1.0,82,0.00,,,0.00,weatherlink.com 1.10,2013-08-02 04:44:00,
2013-08-02 00:59:00,59.9,55.0,29.89,WNW,293,1.0,2.0,83,0.00,,,0.00,weatherlink.com 1.10,2013-08-02 04:59:00,
2013-08-02 01:14:00,60.3,55.0,29.89,WNW,293,0.0,1.0,83,0.00,,,0.00,weatherlink.com 1.10,2013-08-02 05:14:00,
2013-08-02 01:29:00,60.8,55.0,29.89,WNW,293,0.0,1.0,82,0.00,,,0.00,weatherlink.com 1.10,2013-08-02 05:29:00,
2013-08-02 01:44:00,60.2,55.0,29.88,WNW,293,0.0,1.0,83,0.00,,,0.00,weatherlink.com 1.10,2013-08-02 05:44:00,
2013-08-02 01:59:00,59.9,54.0,29.89,WNW,293,1.0,1.0,82,0.00,,,0.00,weatherlink.com 1.10,2013-08-02 05:59:00,
2013-08-02 02:14:00,59.4,55.0,29.88,WNW,293,0.0,1.0,84,0.00,,,0.00,weatherlink.com 1.10,2013-08-02 06:14:00,
2013-08-02 02:29:00,59.8,55.0,29.87,WNW,293,0.0,1.0,84,0.00,,,0.00,weatherlink.com 1.10,2013-08-02 06:29:00,
2013-08-02 02:44:00,59.2,54.0,29.86,WNW,293,0.0,0.0,83,0.00,,,0.00,weatherlink.com 1.10,2013-08-02 06:44:00,
2013-08-02 02:59:00,57.9,54.0,29.86,WNW,293,0.0,1.0,86,0.00,,,0.00,weatherlink.com 1.10,2013-08-02 06:59:00,
2013-08-02 03:14:00,58.0,54.0,29.86,WNW,293,1.0,2.0,86,0.00,,,0.00,weatherlink.com 1.10,2013-08-02 07:14:00,
2013-08-02 03:29:00,57.5,54.0,29.87,WNW,293,0.0,2.0,88,0.00,,,0.00,weatherlink.com 1.10,2013-08-02 07:29:00,
2013-08-02 03:44:00,57.7,54.0,29.87,WNW,293,0.0,1.0,88,0.00,,,0.00,weatherlink.com 1.10,2013-08-02 07:44:00,
2013-08-02 03:59:00,57.2,53.0,29.87,WNW,293,0.0,0.0,87,0.00,,,0.00,weatherlink.com 1.10,2013-08-02 07:59:00,
2013-08-02 04:14:00,56.2,53.0,29.87,WNW,293,0.0,1.0,89,0.00,,,0.00,weatherlink.com 1.10,2013-08-02 08:14:00,
2013-08-02 04:30:00,56.5,54.0,29.87,WNW,293,0.0,1.0,90,0.00,,,0.00,weatherlink.com 1.10,2013-08-02 08:30:00,
2013-08-02 04:44:00,55.9,53.0,29.87,WNW,293,0.0,0.0,90,0.00,,,0.00,weatherlink.com 1.10,2013-08-02 08:44:00,
2013-08-02 05:00:00,55.5,53.0,29.88,WNW,293,0.0,1.0,92,0.00,,,0.00,weatherlink.com 1.10,2013-08-02 09:00:00,
2013-08-02 05:15:00,55.2,53.0,29.89,WNW,293,0.0,2.0,92,0.00,,,0.00,weatherlink.com 1.10,2013-08-02 09:15:00,
2013-08-02 05:30:00,55.2,53.0,29.89,WNW,293,0.0,1.0,92,0.00,,,0.00,weatherlink.com 1.10,2013-08-02 09:30:00,
2013-08-02 05:45:00,55.3,53.0,29.88,WNW,293,0.0,0.0,92,0.00,,,0.00,weatherlink.com 1.10,2013-08-02 09:45:00,
2013-08-02 06:00:00,54.8,53.0,29.89,WNW,293,0.0,1.0,92,0.00,,,0.00,weatherlink.com 1.10,2013-08-02 10:00:00,
2013-08-02 06:15:00,54.8,53.0,29.90,WNW,293,0.0,0.0,92,0.00,,,0.00,weatherlink.com 1.10,2013-08-02 10:15:00,
2013-08-02 06:30:00,54.5,53.0,29.89,WNW,293,1.0,3.0,93,0.00,,,0.00,weatherlink.com 1.10,2013-08-02 10:30:00,
2013-08-02 06:45:00,54.3,53.0,29.89,WNW,293,0.0,1.0,94,0.00,,,0.00,weatherlink.com 1.10,2013-08-02 10:45:00,
2013-08-02 07:00:00,54.1,53.0,29.89,WNW,293,0.0,0.0,94,0.00,,,0.00,weatherlink.com 1.10,2013-08-02 11:00:00,
2013-08-02 07:15:00,54.8,53.0,29.90,WNW,293,1.0,3.0,95,0.00,,,0.00,weatherlink.com 1.10,2013-08-02 11:15:00,
2013-08-02 07:30:00,56.7,55.0,29.89,WNW,293,0.0,3.0,94,0.00,,,0.00,weatherlink.com 1.10,2013-08-02 11:30:00,
2013-08-02 07:45:00,58.1,56.0,29.89,WNW,293,0.0,2.0,92,0.00,,,0.00,weatherlink.com 1.10,2013-08-02 11:45:00,
2013-08-02 08:00:00,59.3,57.0,29.89,WNW,293,0.0,0.0,91,0.00,,,0.00,weatherlink.com 1.10,2013-08-02 12:00:00,
2013-08-02 08:15:00,60.4,57.0,29.88,WNW,293,0.0,2.0,89,0.00,,,0.00,weatherlink.com 1.10,2013-08-02 12:15:00,
2013-08-02 08:30:00,61.9,57.0,29.89,WNW,293,0.0,5.0,85,0.00,,,0.00,weatherlink.com 1.10,2013-08-02 12:30:00,
2013-08-02 08:45:00,63.3,58.0,29.89,WNW,293,1.0,4.0,84,0.00,,,0.00,weatherlink.com 1.10,2013-08-02 12:45:00,
2013-08-02 09:00:00,65.1,60.0,29.89,WNW,293,0.0,3.0,84,0.00,,,0.00,weatherlink.com 1.10,2013-08-02 13:00:00,
2013-08-02 09:15:00,66.0,59.0,29.89,WNW,293,0.0,3.0,79,0.00,,,0.00,weatherlink.com 1.10,2013-08-02 13:15:00,
2013-08-02 09:30:00,66.2,60.0,29.89,WNW,293,1.0,3.0,80,0.00,,,0.00,weatherlink.com 1.10,2013-08-02 13:30:00,
2013-08-02 09:45:00,66.1,61.0,29.89,SW,228,5.0,5.0,84,0.00,,,0.00,weatherlink.com 1.10,2013-08-02 13:45:00,
2013-08-02 10:00:00,65.8,61.0,29.89,SW,224,5.0,6.0,84,0.00,,,0.00,weatherlink.com 1.10,2013-08-02 14:00:00,
2013-08-02 10:15:00,65.9,61.0,29.89,SSW,208,2.0,7.0,84,0.00,,,0.00,weatherlink.com 1.10,2013-08-02 14:15:00,
2013-08-02 10:30:00,66.0,61.0,29.90,WSW,245,4.0,7.0,83,0.00,,,0.00,weatherlink.com 1.10,2013-08-02 14:30:00,
2013-08-02 10:45:00,66.7,61.0,29.89,West,275,3.0,11.0,81,0.00,,,0.00,weatherlink.com 1.10,2013-08-02 14:45:00,
2013-08-02 11:00:00,67.0,60.0,29.90,WNW,284,6.0,14.0,79,0.00,,,0.00,weatherlink.com 1.10,2013-08-02 15:00:00,
2013-08-02 11:15:00,66.7,60.0,29.89,West,281,1.0,16.0,78,0.00,,,0.00,weatherlink.com 1.10,2013-08-02 15:15:00,
2013-08-02 11:30:00,67.3,61.0,29.90,WSW,247,5.0,12.0,79,0.00,,,0.00,weatherlink.com 1.10,2013-08-02 15:30:00,
2013-08-02 11:45:00,67.2,61.0,29.86,SW,217,6.0,10.0,79,0.00,,,0.00,weatherlink.com 1.10,2013-08-02 15:45:00,
2013-08-02 12:00:00,67.7,61.0,29.87,West,269,1.0,17.0,80,0.00,,,0.00,weatherlink.com 1.10,2013-08-02 16:00:00,
2013-08-02 12:15:00,68.9,61.0,29.89,SW,227,5.0,14.0,76,0.00,,,0.00,weatherlink.com 1.10,2013-08-02 16:15:00,
2013-08-02 12:30:00,68.6,60.0,29.89,West,259,8.0,14.0,75,0.00,,,0.00,weatherlink.com 1.10,2013-08-02 16:30:00,
2013-08-02 12:45:00,68.0,60.0,29.88,WNW,292,6.0,15.0,76,0.00,,,0.00,weatherlink.com 1.10,2013-08-02 16:45:00,
2013-08-02 13:00:00,68.7,62.0,29.88,SSW,203,7.0,21.0,78,0.00,,,0.00,weatherlink.com 1.10,2013-08-02 17:00:00,
2013-08-02 13:15:00,67.7,61.0,29.88,SW,229,11.0,19.0,80,0.00,,,0.00,weatherlink.com 1.10,2013-08-02 17:15:00,
2013-08-02 13:30:00,68.6,62.0,29.87,SW,232,10.0,15.0,80,0.00,,,0.00,weatherlink.com 1.10,2013-08-02 17:30:00,
2013-08-02 13:45:00,68.1,62.0,29.88,WSW,248,7.0,14.0,81,0.00,,,0.00,weatherlink.com 1.10,2013-08-02 17:45:00,
2013-08-02 14:01:00,66.2,61.0,29.87,SW,232,3.0,16.0,82,0.00,,,0.00,weatherlink.com 1.10,2013-08-02 18:01:00,
2013-08-02 14:16:00,66.4,62.0,29.87,WSW,246,3.0,9.0,84,0.00,,,0.00,weatherlink.com 1.10,2013-08-02 18:16:00,
2013-08-02 14:31:00,66.7,62.0,29.87,WSW,254,3.0,11.0,84,0.00,,,0.00,weatherlink.com 1.10,2013-08-02 18:31:00,
2013-08-02 14:46:00,66.6,62.0,29.86,WSW,240,8.0,12.0,86,0.00,,,0.00,weatherlink.com 1.10,2013-08-02 18:46:00,
2013-08-02 15:01:00,66.9,62.0,29.86,WSW,240,7.0,14.0,85,0.00,,,0.00,weatherlink.com 1.10,2013-08-02 19:01:00,
2013-08-02 15:16:00,67.6,63.0,29.86,South,178,3.0,14.0,85,0.00,,,0.00,weatherlink.com 1.10,2013-08-02 19:16:00,
2013-08-02 15:30:00,67.9,63.0,29.85,West,276,5.0,14.0,83,0.00,,,0.00,weatherlink.com 1.10,2013-08-02 19:30:00,
2013-08-02 15:46:00,67.3,62.0,29.85,SW,236,8.0,18.0,83,0.00,,,0.00,weatherlink.com 1.10,2013-08-02 19:46:00,
2013-08-02 16:01:00,67.6,63.0,29.85,WSW,251,9.0,16.0,84,0.00,,,0.00,weatherlink.com 1.10,2013-08-02 20:01:00,
2013-08-02 16:16:00,68.5,63.0,29.84,WSW,252,9.0,15.0,83,0.00,,,0.00,weatherlink.com 1.10,2013-08-02 20:16:00,
2013-08-02 16:31:00,68.9,63.0,29.84,West,275,5.0,13.0,82,0.00,,,0.00,weatherlink.com 1.10,2013-08-02 20:31:00,
2013-08-02 16:46:00,69.0,63.0,29.83,WNW,294,8.0,14.0,82,0.00,,,0.00,weatherlink.com 1.10,2013-08-02 20:46:00,
2013-08-02 17:01:00,69.2,64.0,29.82,WSW,245,9.0,11.0,82,0.00,,,0.00,weatherlink.com 1.10,2013-08-02 21:01:00,
2013-08-02 17:16:00,69.7,64.0,29.82,WSW,257,9.0,12.0,82,0.00,,,0.00,weatherlink.com 1.10,2013-08-02 21:16:00,
2013-08-02 17:31:00,69.6,64.0,29.82,WSW,250,5.0,9.0,83,0.00,,,0.00,weatherlink.com 1.10,2013-08-02 21:31:00,
2013-08-02 17:46:00,69.8,64.0,29.82,WSW,242,3.0,7.0,83,0.00,,,0.00,weatherlink.com 1.10,2013-08-02 21:46:00,
2013-08-02 18:01:00,70.3,65.0,29.82,West,267,5.0,6.0,84,0.00,,,0.00,weatherlink.com 1.10,2013-08-02 22:01:00,
2013-08-02 18:16:00,71.0,66.0,29.82,WSW,252,0.0,6.0,84,0.00,,,0.00,weatherlink.com 1.10,2013-08-02 22:16:00,
2013-08-02 18:31:00,71.1,66.0,29.82,SW,224,2.0,3.0,84,0.00,,,0.00,weatherlink.com 1.10,2013-08-02 22:31:00,
2013-08-02 18:46:00,71.4,66.0,29.82,WSW,256,0.0,4.0,84,0.00,,,0.00,weatherlink.com 1.10,2013-08-02 22:46:00,
2013-08-02 19:01:00,71.5,67.0,29.81,WSW,256,2.0,5.0,84,0.00,,,0.00,weatherlink.com 1.10,2013-08-02 23:01:00,
2013-08-02 19:16:00,71.6,67.0,29.81,WSW,256,0.0,3.0,85,0.00,,,0.00,weatherlink.com 1.10,2013-08-02 23:16:00,
2013-08-02 19:31:00,71.6,67.0,29.82,WSW,256,0.0,1.0,86,0.00,,,0.00,weatherlink.com 1.10,2013-08-02 23:31:00,
2013-08-02 19:46:00,71.3,67.0,29.81,WSW,256,0.0,1.0,86,0.00,,,0.00,weatherlink.com 1.10,2013-08-02 23:46:00,
2013-08-02 20:31:00,69.6,66.0,29.83,WSW,256,0.0,0.0,89,0.00,,,0.00,weatherlink.com 1.10,2013-08-03 00:31:00,
2013-08-02 21:31:00,66.9,65.0,29.85,WSW,256,0.0,1.0,93,0.00,,,0.00,weatherlink.com 1.10,2013-08-03 01:31:00,
2013-08-02 22:16:00,65.9,64.0,29.86,WSW,256,0.0,1.0,94,0.00,,,0.00,weatherlink.com 1.10,2013-08-03 02:16:00,
2013-08-02 23:01:00,65.1,64.0,29.87,WSW,256,0.0,1.0,96,0.00,,,0.00,weatherlink.com 1.10,2013-08-03 03:01:00,
2013-08-02 23:16:00,64.8,63.0,29.87,WSW,256,1.0,2.0,95,0.00,,,0.00,weatherlink.com 1.10,2013-08-03 03:16:00,
2013-08-02 23:31:00,64.5,63.0,29.87,WSW,256,0.0,1.0,96,0.00,,,0.00,weatherlink.com 1.10,2013-08-03 03:31:00,